Wind_Speed
31 31 27 22 21 16 16 16 17 18 17 17 16 16 15 15 15 13 5 10 11 8 32 12 13 24 23 15 7 15 12 11 4 3 3 3 3 5 6 7 6 4 3 2 1 10 7 10 11 7 8 10 7 13
29 27 21 19 16 14 15 16 17 17 16 16 16 15 14 15 15 13 9 7 9 18 28 35 28 23 30 31 24 14 15 19 2 3 4 3 4 4 7 4 8 2 4 3 5 3 2 5 5 9 14 19 6 14
24 22 19 16 15 14 15 16 17 16 16 16 15 13 14 14 15 15 16 10 17 17 27 10 8 13 5 8 12 16 15 14 9 17 7 4 3 2 3 3 5 9 14 4 6 3 5 9 14 3 25 28 13 4
20 20 16 15 14 14 16 16 16 16 16 15 13 13 14 15 14 15 17 6 9 10 6 11 14 22 12 14 12 23 21 18 18 16 11 4 1 6 3 2 4 6 3 3 6 11 16 19 6 7 21 28 12 5
18 16 14 13 14 14 16 15 16 16 15 14 13 14 15 15 14 14 9 5 9 8 5 18 27 6 11 13 18 16 18 20 15 9 5 5 4 3 5 3 3 9 5 4 5 16 6 17 17 19 22 27 10 28
15 15 14 14 15 16 16 15 15 13 13 14 16 15 15 14 12 10 2 3 5 3 7 5 16 10 9 8 9 18 20 12 15 11 5 10 21 9 3 3 2 3 8 10 6 9 17 26 26 24 26 26 18 6
13 14 14 15 15 15 15 14 12 13 14 14 15 14 13 13 12 5 5 4 7 11 5 7 7 9 6 10 11 13 15 12 13 15 15 17 18 11 2 6 8 20 11 10 14 14 15 21 15 21 24 26 20 4
12 13 14 15 14 13 12 12 13 13 14 14 14 13 13 13 12 5 4 5 8 7 5 3 5 10 8 5 7 6 13 5 7 8 7 6 11 4 4 6 10 8 7 8 7 12 18 12 12 17 23 21 14 8
12 12 12 12 12 11 11 12 13 14 14 13 11 10 8 3 1 4 8 9 5 5 5 5 4 4 11 17 6 4 4 3 6 3 7 5 3 4 6 13 9 4 1 12 15 14 15 11 13 13 12 11 5 11
12 11 11 10 10 10 11 12 14 13 9 6 6 4 3 3 9 12 3 2 3 4 5 6 8 8 18 13 4 6 3 3 2 4 10 2 6 18 6 13 5 8 11 11 6 8 19 16 13 10 13 15 14 7
10 10 10 9 9 10 12 12 12 9 6 4 4 4 7 7 5 3 3 5 7 5 7 7 8 7 13 4 3 3 3 2 2 2 2 1 3 3 5 7 11 10 11 14 14 17 16 16 8 12 11 15 5 22
9 9 9 8 10 11 11 11 8 5 6 6 8 9 5 3 3 4 3 5 4 2 1 5 8 9 7 6 3 3 3 2 4 1 1 2 3 8 8 13 9 15 12 15 16 17 16 13 7 8 15 19 35 40
8 7 8 10 11 11 10 9 7 6 3 1 3 3 3 3 1 4 2 2 2 3 4 8 9 8 4 2 4 2 3 4 6 1 3 1 7 10 14 15 20 5 9 10 12 17 17 21 11 6 13 10 29 24
6 8 10 10 10 9 9 8 6 3 0 2 3 4 3 3 4 3 2 3 3 7 9 10 9 4 4 3 2 3 4 2 2 3 1 2 12 16 17 17 14 16 11 14 11 8 13 26 19 8 9 11 28 20
7 8 9 7 8 9 8 6 3 3 2 4 4 3 6 10 9 12 5 7 10 10 8 10 4 3 3 3 2 4 3 4 1 1 2 9 13 16 18 14 12 11 8 5 14 18 14 24 16 19 15 16 16 16
7 7 5 9 9 6 3 4 4 1 3 5 6 7 13 10 9 9 6 5 6 10 1 3 3 3 2 3 3 3 8 3 3 4 6 8 8 12 15 15 15 13 17 16 15 13 3 18 20 22 15 18 13 10
3 2 7 7 4 4 3 4 3 5 5 4 7 14 17 12 11 13 11 12 2 5 2 1 2 2 3 3 1 4 3 3 17 15 6 11 11 9 12 15 18 21 16 20 18 13 8 9 2 24 23 21 22 20
6 4 5 4 2 2 2 3 3 5 6 10 13 14 11 11 13 13 10 13 5 3 4 2 4 2 2 4 2 4 9 9 14 12 11 14 11 8 12 17 18 17 16 17 15 16 20 21 6 12 6 13 15 21
9 5 4 3 3 3 3 4 6 5 9 15 15 15 12 15 14 15 16 18 13 11 2 5 3 3 3 7 7 13 14 16 12 7 16 10 7 21 20 16 18 20 13 17 19 13 13 16 19 7 6 18 1 12
7 7 6 4 3 2 4 5 6 6 6 9 13 14 12 14 18 17 19 12 4 4 3 3 4 9 14 13 13 12 7 8 12 16 19 9 22 21 20 19 20 11 12 13 7 7 10 12 11 0 9 11 14 8
1 1 3 5 4 7 5 5 5 7 9 8 12 16 12 14 16 18 19 13 10 7 5 16 18 19 8 5 2 6 7 9 12 12 15 22 22 20 20 20 10 5 10 12 24 16 12 12 14 16 10 11 14 14
4 4 4 4 4 4 6 8 7 11 10 16 20 18 12 11 15 15 16 7 5 13 18 14 9 12 13 13 14 16 16 15 16 14 13 14 19 19 18 17 10 10 15 11 12 9 14 14 10 10 14 11 7 3
4 4 4 4 4 4 7 6 5 4 4 6 10 5 5 4 4 6 2 3 4 10 10 8 6 9 11 13 12 12 9 10 10 8 11 12 14 16 9 3 9 15 13 10 9 12 12 12 12 13 9 10 4 9
3 2 3 3 7 5 5 5 5 4 4 8 3 5 5 3 5 4 3 5 5 6 6 7 5 8 11 10 10 10 8 7 5 8 7 6 6 9 10 11 8 5 9 8 3 6 11 9 9 10 10 10 8 10
3 4 3 5 5 5 4 3 4 3 4 9 8 10 4 4 2 2 0 3 7 6 1 3 4 8 15 10 10 10 10 9 7 7 8 8 12 4 13 8 11 13 13 13 11 9 8 5 5 6 7 12 7 8
4 5 8 5 4 3 3 2 2 2 7 11 4 4 3 3 3 1 3 2 5 6 6 10 10 15 17 13 9 10 9 10 9 7 8 2 9 10 3 8 8 11 15 13 12 11 9 8 7 7 6 6 6 7
4 5 11 11 10 5 5 5 8 6 3 4 3 3 2 2 4 3 4 1 5 4 5 8 11 19 20 15 10 10 8 4 7 8 9 7 6 7 6 4 6 6 8 8 8 11 10 10 9 10 12 11 11 11
10 5 4 7 8 7 5 4 4 5 4 3 5 3 5 2 2 3 3 1 6 12 13 16 19 16 17 15 11 6 4 2 3 1 2 4 9 6 5 3 5 10 5 7 10 6 9 10 7 8 8 8 10 11
9 8 9 11 7 4 4 3 7 8 12 15 7 7 12 16 16 11 10 18 24 32 20 14 6 6 15 19 17 12 8 11 14 12 7 3 6 11 8 7 8 9 10 10 8 3 8 8 11 5 8 11 10 10
15 13 10 8 8 6 11 13 14 17 20 18 15 17 18 20 21 24 35 34 23 10 9 7 9 11 3 4 4 9 7 10 6 7 15 15 10 9 10 8 9 8 7 8 10 5 13 10 13 12 10 11 11 10
8 4 7 11 14 18 21 23 22 15 12 19 23 23 25 28 33 15 9 4 6 9 11 13 11 3 5 11 9 11 6 0 5 4 3 6 6 6 9 9 8 10 7 9 8 8 8 11 12 10 10 9 9 9
12 15 11 10 13 14 6 12 17 20 14 7 6 5 5 4 4 1 11 17 18 17 16 9 3 10 8 8 9 10 9 7 6 5 4 3 4 9 7 7 8 9 6 9 10 12 7 6 9 9 11 12 14 15
7 10 9 7 5 3 5 8 4 4 4 2 3 6 4 5 5 7 19 19 13 7 9 11 10 5 3 7 9 15 13 15 14 13 13 11 7 4 3 8 7 9 10 9 9 9 11 10 11 10 12 11 10 12
Wind_Direction
318 319 320 321 328 333 326 323 323 327 329 331 333 333 335 342 343 344 6 354 331 285 291 273 298 307 304 299 289 325 334 11 335 1 249 248 275 273 279 268 260 217 176 255 285 219 233 0 65 160 312 1 351 18
317 319 321 321 323 326 324 322 322 325 326 327 326 327 330 335 339 334 322 277 315 291 268 293 287 274 259 255 265 282 293 311 210 39 346 348 315 318 320 293 23 39 340 230 169 217 279 22 106 261 303 307 26 258
314 319 322 323 320 324 322 319 320 322 324 326 323 322 327 331 330 330 328 351 332 306 307 294 239 315 322 265 253 240 263 275 305 332 306 257 280 113 300 9 339 351 14 358 6 316 292 86 0 64 238 276 245 338
311 315 309 311 317 316 315 316 319 321 322 322 321 323 326 328 326 322 324 354 326 309 295 295 305 294 262 254 263 233 253 267 274 282 284 281 292 313 215 179 162 191 343 2 294 288 290 287 79 274 276 254 239 226
309 312 308 311 312 310 312 316 317 317 319 318 319 320 321 324 324 325 325 330 282 283 292 295 326 334 302 286 252 241 247 254 258 264 261 272 263 314 275 244 224 177 177 172 199 267 236 265 284 309 324 334 84 131
306 311 309 309 307 309 313 314 316 319 320 320 318 315 314 316 323 339 290 305 284 312 313 302 304 317 343 309 278 250 239 249 250 245 265 266 274 253 272 278 310 158 242 230 239 277 262 267 262 278 312 314 308 220
298 302 304 305 307 309 310 312 318 319 320 323 324 320 313 309 307 294 250 262 295 302 280 294 286 286 303 334 328 316 305 244 233 242 243 253 268 267 245 257 273 278 290 246 264 263 259 256 256 261 293 323 299 63
292 296 302 306 309 312 314 318 320 319 320 321 318 313 308 304 304 310 319 295 265 287 269 281 278 299 355 24 318 7 308 302 239 249 245 261 266 194 242 236 267 312 272 236 259 255 244 268 257 268 290 296 287 222
297 297 301 305 309 312 316 320 322 322 323 321 319 314 317 354 350 276 298 285 268 230 290 257 296 308 328 339 321 315 329 28 309 257 241 249 189 224 229 249 254 300 307 221 237 271 225 250 234 318 288 266 257 104
293 295 298 304 310 314 319 324 326 329 333 350 354 349 276 302 320 303 310 230 219 206 231 266 274 283 303 325 338 327 196 214 254 262 320 250 245 252 277 263 235 271 256 218 229 279 252 252 245 313 249 225 185 146
285 290 299 307 312 316 320 326 331 340 353 10 325 269 294 320 311 253 250 210 186 218 212 251 280 300 309 308 288 272 302 239 269 272 262 287 286 13 322 274 263 279 262 272 271 269 278 256 184 175 172 195 197 238
283 293 298 305 311 315 317 321 319 306 288 292 295 295 318 268 258 276 249 223 207 325 269 296 313 306 296 313 298 298 263 271 254 70 164 263 3 344 347 335 324 289 260 268 263 261 228 208 150 163 183 169 181 216
281 289 300 307 310 314 315 316 312 317 311 348 288 263 231 253 339 234 269 344 2 298 298 303 310 311 310 307 279 314 286 240 319 291 304 267 305 335 333 324 309 306 314 314 299 231 232 219 193 161 170 149 189 222
273 296 307 308 312 314 320 317 283 261 116 262 248 292 232 223 234 275 357 320 281 254 291 316 318 342 300 274 340 265 246 293 269 207 281 295 338 340 352 350 354 336 4 328 308 284 220 208 187 199 204 156 186 217
291 307 308 316 317 312 307 303 202 178 260 260 246 243 232 250 296 340 21 348 323 335 344 316 325 348 305 300 254 283 259 243 39 63 288 344 346 357 2 353 346 346 337 256 319 357 190 190 188 184 166 181 237 191
302 309 343 335 329 321 294 164 148 152 256 245 237 244 276 304 306 312 298 269 293 246 349 30 7 308 294 319 282 272 322 6 37 308 353 358 4 5 352 351 352 352 349 3 360 350 130 197 198 197 205 211 195 194
308 349 332 341 19 50 136 148 204 232 250 241 246 251 261 285 313 303 303 308 293 317 7 110 31 308 276 244 198 347 338 316 305 337 0 358 349 348 346 353 342 341 337 356 358 10 8 342 117 213 214 219 230 234
202 260 302 320 277 350 288 238 258 250 247 253 265 278 306 296 310 314 318 299 310 214 215 216 143 305 272 298 352 253 296 284 311 325 336 339 339 340 331 327 332 345 350 346 356 336 339 13 302 70 203 242 215 213
234 246 269 299 266 299 278 235 220 261 247 264 272 279 291 291 285 284 284 282 283 241 213 179 180 208 244 207 256 286 276 282 319 337 347 321 360 349 349 336 341 344 337 347 347 343 352 347 347 324 23 29 260 186
255 250 240 249 272 248 266 254 226 254 276 300 300 298 311 288 280 284 292 277 319 332 267 230 244 267 269 275 263 254 277 310 322 322 331 321 333 343 340 340 341 339 350 348 7 7 18 39 61 234 264 333 352 36
127 176 211 259 282 237 268 278 257 258 288 282 283 310 295 292 293 286 274 276 204 200 246 265 253 263 311 350 270 263 287 294 298 305 304 307 308 321 334 346 19 14 5 16 360 23 55 48 58 75 99 195 264 260
211 205 224 252 256 245 249 243 250 289 284 269 279 279 280 270 275 277 286 262 200 268 245 269 289 310 301 297 296 294 295 288 282 283 299 301 304 310 315 317 309 7 17 13 334 341 49 44 61 93 74 90 126 190
206 211 242 233 242 251 263 252 244 250 275 297 289 281 262 293 282 285 252 207 276 264 240 247 299 305 306 307 306 317 309 293 290 271 286 297 307 324 331 87 74 65 59 64 39 33 37 36 44 60 62 65 84 212
206 255 250 244 211 253 252 224 232 257 260 253 289 305 289 279 274 237 246 181 240 258 270 250 259 344 337 338 340 343 339 0 312 330 355 336 349 24 58 53 43 49 15 355 6 11 12 31 35 44 47 37 28 27
266 237 220 256 242 239 261 232 212 234 260 277 286 285 281 324 286 262 40 173 182 183 104 28 341 354 343 334 336 347 346 353 347 348 16 29 9 51 52 39 66 58 55 60 54 55 21 26 30 64 46 53 62 49
234 222 201 239 225 239 271 287 284 297 300 299 264 325 342 272 257 329 39 39 133 104 54 19 8 346 331 331 328 325 328 356 33 69 51 5 7 18 110 68 55 54 44 40 51 46 38 26 31 17 12 18 27 31
243 247 214 242 273 274 273 286 301 304 294 277 314 324 248 278 52 329 318 235 102 32 354 325 325 324 313 314 298 279 299 105 57 52 51 71 68 57 77 69 42 37 30 12 33 21 2 349 349 0 357 354 3 7
232 279 283 222 223 246 272 275 274 269 233 255 337 310 319 16 26 338 321 186 317 317 310 310 318 318 297 286 273 266 168 82 58 47 128 50 38 72 92 34 20 17 5 6 18 5 11 13 18 11 9 6 12 2
228 232 236 261 264 242 244 252 252 256 282 313 300 287 284 293 312 313 290 304 303 302 290 289 276 116 90 79 74 81 96 62 31 10 5 38 60 64 50 40 27 15 19 7 346 349 28 12 356 6 32 23 11 10
247 257 248 241 250 244 240 237 265 285 289 294 302 303 296 288 285 281 295 296 294 272 227 186 199 182 132 31 111 102 84 35 31 48 42 42 58 50 38 29 15 6 20 12 18 62 24 22 22 40 37 24 17 28
238 240 245 248 261 260 266 270 276 289 308 310 299 288 285 294 297 302 289 257 155 163 168 161 159 122 357 54 174 150 108 264 8 349 174 76 65 80 50 18 18 15 28 21 21 35 35 24 27 26 18 16 18 5
225 216 228 248 263 274 307 334 319 303 298 283 270 254 266 255 272 110 140 142 140 145 148 150 86 105 101 68 66 48 22 27 31 38 25 24 102 98 63 59 45 32 34 37 38 35 34 25 33 37 31 1 357 359
275 268 268 279 307 309 333 328 297 289 274 320 19 106 117 115 108 145 158 152 136 136 129 122 126 139 89 70 59 41 49 58 57 59 62 62 58 37 65 85 62 61 59 53 45 28 33 40 37 20 15 19 37 40
Height
1557 1553 1549 1545 1542 1540 1539 1537 1535 1533 1531 1528 1526 1524 1522 1520 1518 1516 1516 1515 1514 1509 1494 1489 1490 1489 1487 1485 1480 1474 1471 1466 1462 1467 1461 1460 1457 1452 1451 1446 1446 1449 1454 1457 1452 1461 1470 1444 1446 1465 1462 1447 1442 1438
1552 1548 1545 1542 1540 1539 1537 1535 1533 1531 1529 1527 1525 1523 1521 1519 1517 1515 1513 1512 1512 1510 1494 1487 1479 1478 1478 1476 1481 1479 1477 1474 1470 1473 1472 1467 1468 1456 1455 1458 1444 1454 1452 1450 1450 1452 1444 1442 1443 1446 1448 1456 1441 1438
1548 1545 1542 1540 1538 1537 1536 1534 1531 1529 1527 1525 1523 1521 1519 1517 1516 1514 1510 1509 1508 1502 1486 1480 1473 1472 1468 1471 1474 1477 1473 1473 1471 1473 1470 1465 1465 1459 1467 1466 1461 1454 1451 1455 1453 1444 1443 1447 1450 1443 1448 1454 1447 1444
1544 1542 1540 1538 1536 1535 1533 1531 1529 1527 1525 1523 1521 1520 1518 1516 1514 1512 1509 1508 1509 1506 1499 1477 1472 1468 1468 1467 1468 1469 1468 1470 1470 1470 1469 1465 1464 1457 1461 1460 1464 1461 1459 1461 1458 1447 1447 1445 1448 1459 1464 1453 1442 1439
1541 1538 1537 1536 1534 1533 1530 1528 1527 1525 1523 1521 1519 1518 1516 1514 1512 1510 1508 1507 1507 1509 1501 1484 1469 1464 1463 1463 1463 1464 1465 1466 1466 1467 1465 1464 1457 1457 1453 1452 1452 1455 1453 1459 1459 1450 1449 1440 1442 1445 1445 1442 1445 1438
1537 1536 1534 1533 1532 1530 1528 1526 1524 1522 1521 1519 1517 1515 1514 1512 1510 1508 1507 1506 1505 1506 1504 1490 1473 1462 1460 1460 1459 1459 1460 1460 1461 1462 1461 1458 1456 1457 1457 1453 1446 1449 1449 1449 1449 1448 1447 1442 1438 1440 1443 1441 1444 1442
1535 1534 1532 1531 1529 1527 1525 1524 1522 1520 1518 1517 1515 1512 1511 1510 1509 1509 1508 1506 1505 1505 1504 1494 1477 1463 1460 1459 1458 1456 1455 1455 1456 1457 1457 1456 1453 1453 1451 1454 1446 1445 1443 1444 1444 1443 1443 1441 1438 1436 1436 1442 1440 1441
1531 1530 1529 1528 1527 1525 1523 1521 1520 1518 1516 1514 1512 1510 1508 1507 1505 1505 1504 1504 1504 1504 1503 1497 1479 1467 1461 1460 1460 1457 1458 1455 1453 1452 1452 1451 1449 1450 1451 1442 1442 1442 1442 1442 1441 1438 1437 1435 1437 1438 1439 1439 1439 1437
1529 1528 1527 1526 1524 1523 1521 1519 1517 1515 1514 1511 1510 1508 1506 1505 1505 1504 1503 1502 1502 1506 1501 1493 1483 1475 1465 1463 1459 1458 1456 1455 1455 1450 1449 1449 1447 1454 1442 1439 1439 1439 1438 1438 1437 1435 1434 1434 1431 1436 1437 1435 1436 1441
1526 1525 1524 1523 1522 1521 1519 1517 1515 1513 1511 1510 1509 1508 1506 1506 1504 1503 1500 1501 1500 1500 1499 1491 1482 1476 1473 1466 1460 1460 1457 1457 1455 1449 1444 1442 1440 1435 1435 1436 1434 1435 1437 1435 1434 1432 1430 1430 1432 1431 1435 1434 1438 1444
1523 1523 1522 1521 1520 1518 1517 1515 1514 1512 1512 1511 1510 1508 1506 1505 1503 1501 1499 1498 1495 1494 1490 1483 1477 1475 1470 1467 1465 1460 1457 1454 1455 1448 1446 1442 1440 1432 1432 1431 1431 1430 1431 1430 1431 1429 1427 1428 1431 1432 1436 1431 1429 1443
1521 1520 1519 1518 1517 1516 1515 1514 1513 1512 1512 1511 1510 1508 1505 1504 1503 1501 1492 1487 1485 1482 1482 1479 1476 1474 1470 1467 1464 1460 1457 1454 1451 1447 1449 1445 1438 1434 1433 1430 1423 1422 1424 1425 1426 1426 1426 1426 1426 1429 1433 1434 1436 1444
1518 1517 1517 1516 1515 1513 1513 1512 1512 1510 1510 1510 1509 1507 1505 1503 1503 1495 1486 1486 1486 1486 1481 1479 1476 1472 1469 1468 1464 1462 1458 1451 1444 1446 1444 1441 1437 1436 1433 1428 1423 1422 1421 1417 1419 1421 1422 1424 1425 1427 1430 1433 1437 1437
1515 1515 1514 1513 1512 1512 1511 1510 1509 1510 1510 1510 1507 1507 1501 1495 1489 1485 1485 1484 1483 1481 1480 1477 1475 1473 1471 1468 1465 1463 1454 1448 1447 1446 1447 1441 1439 1436 1432 1428 1423 1419 1417 1415 1416 1416 1418 1420 1422 1424 1425 1430 1433 1428
1513 1512 1512 1511 1510 1509 1508 1508 1508 1509 1510 1508 1505 1502 1491 1486 1484 1483 1483 1483 1481 1480 1478 1476 1474 1475 1473 1469 1465 1457 1450 1445 1443 1447 1444 1441 1439 1435 1432 1429 1427 1424 1419 1415 1418 1416 1416 1419 1421 1424 1426 1428 1428 1431
1512 1510 1510 1509 1508 1507 1506 1507 1508 1510 1509 1505 1499 1492 1486 1484 1483 1482 1480 1480 1478 1478 1478 1478 1478 1476 1472 1471 1465 1456 1451 1448 1453 1446 1446 1443 1440 1437 1433 1432 1428 1426 1424 1423 1423 1418 1417 1418 1420 1422 1424 1426 1428 1430
1510 1510 1510 1508 1508 1507 1507 1508 1509 1508 1504 1498 1491 1487 1486 1483 1482 1480 1479 1477 1476 1477 1479 1480 1480 1476 1476 1468 1463 1465 1461 1459 1454 1450 1446 1444 1441 1438 1434 1432 1430 1429 1427 1425 1423 1419 1417 1414 1416 1420 1424 1426 1428 1431
1508 1509 1508 1507 1508 1507 1508 1507 1507 1503 1497 1492 1489 1484 1482 1481 1479 1478 1477 1477 1475 1475 1477 1477 1477 1479 1473 1472 1467 1465 1462 1457 1454 1451 1447 1444 1441 1440 1437 1434 1431 1428 1427 1425 1425 1422 1420 1415 1420 1417 1421 1424 1423 1427
1507 1507 1507 1507 1508 1508 1507 1504 1504 1498 1490 1486 1483 1481 1479 1477 1476 1476 1474 1473 1473 1473 1475 1475 1475 1475 1471 1467 1465 1460 1458 1456 1454 1450 1446 1443 1442 1440 1437 1434 1432 1430 1428 1426 1425 1423 1421 1417 1416 1417 1417 1423 1423 1420
1505 1505 1505 1506 1507 1507 1505 1501 1498 1494 1486 1482 1480 1478 1476 1475 1472 1471 1470 1469 1471 1471 1472 1468 1466 1464 1462 1459 1457 1457 1456 1454 1453 1452 1447 1443 1442 1439 1436 1434 1434 1432 1429 1426 1424 1423 1421 1422 1423 1420 1416 1416 1427 1426
1503 1504 1504 1506 1506 1505 1503 1497 1493 1489 1485 1482 1478 1476 1473 1470 1469 1467 1465 1465 1465 1467 1468 1463 1462 1462 1460 1458 1456 1456 1455 1455 1452 1452 1450 1445 1442 1440 1437 1436 1433 1432 1431 1428 1427 1425 1426 1425 1424 1423 1424 1426 1428 1427
1503 1503 1504 1505 1504 1501 1498 1494 1492 1488 1486 1480 1476 1472 1469 1465 1463 1462 1461 1460 1459 1462 1461 1459 1458 1458 1457 1456 1454 1452 1450 1450 1449 1448 1447 1445 1443 1440 1437 1437 1434 1431 1430 1428 1426 1429 1428 1430 1430 1428 1429 1429 1429 1430
1503 1503 1503 1502 1501 1498 1493 1490 1488 1485 1481 1475 1471 1468 1464 1460 1459 1458 1458 1457 1457 1456 1457 1457 1457 1457 1455 1452 1450 1448 1446 1445 1444 1444 1443 1443 1442 1441 1437 1436 1435 1433 1433 1433 1433 1432 1430 1432 1433 1432 1431 1431 1431 1431
1503 1502 1500 1498 1497 1493 1488 1486 1483 1481 1478 1475 1470 1467 1462 1458 1457 1456 1454 1454 1454 1454 1454 1454 1456 1455 1454 1451 1449 1447 1445 1444 1444 1443 1442 1443 1442 1441 1438 1437 1435 1434 1433 1433 1433 1434 1434 1435 1434 1433 1433 1433 1431 1430
1502 1500 1499 1494 1491 1489 1483 1479 1478 1478 1475 1471 1469 1465 1460 1458 1457 1453 1451 1453 1453 1454 1454 1455 1455 1454 1452 1450 1448 1447 1445 1444 1443 1444 1444 1444 1443 1442 1438 1437 1437 1437 1436 1435 1434 1435 1435 1436 1436 1437 1437 1435 1433 1432
1499 1492 1492 1485 1482 1481 1478 1476 1475 1475 1474 1469 1465 1461 1461 1460 1455 1452 1455 1455 1455 1456 1456 1456 1455 1454 1452 1450 1448 1446 1445 1444 1443 1443 1442 1441 1441 1441 1439 1441 1441 1440 1440 1439 1438 1436 1437 1436 1436 1436 1436 1435 1435 1434
1493 1485 1482 1482 1481 1480 1479 1477 1476 1475 1472 1466 1460 1459 1458 1456 1459 1461 1458 1457 1457 1457 1457 1455 1454 1452 1449 1447 1446 1444 1443 1443 1444 1445 1445 1444 1445 1444 1443 1442 1442 1442 1441 1440 1439 1438 1437 1436 1435 1434 1433 1433 1433 1432
1484 1480 1478 1479 1479 1479 1479 1477 1475 1471 1466 1464 1464 1461 1461 1456 1458 1458 1457 1457 1457 1456 1455 1453 1452 1449 1445 1443 1442 1442 1443 1443 1443 1444 1445 1445 1445 1444 1444 1444 1443 1442 1441 1440 1440 1439 1439 1438 1437 1436 1434 1434 1433 1432
1479 1477 1478 1476 1476 1476 1475 1473 1471 1468 1464 1463 1462 1460 1458 1456 1456 1454 1452 1452 1452 1451 1450 1450 1450 1449 1446 1444 1443 1443 1444 1443 1444 1443 1444 1445 1445 1445 1444 1443 1443 1442 1442 1441 1440 1439 1439 1438 1437 1436 1435 1435 1434 1432
1474 1474 1474 1472 1472 1470 1469 1468 1465 1463 1462 1461 1458 1455 1453 1451 1450 1448 1446 1443 1442 1443 1444 1446 1448 1449 1448 1448 1448 1448 1448 1446 1446 1447 1446 1446 1445 1444 1444 1445 1445 1443 1442 1442 1440 1439 1438 1437 1436 1434 1433 1432 1430 1430
1469 1468 1468 1467 1466 1465 1463 1461 1460 1458 1457 1455 1453 1451 1448 1445 1439 1437 1436 1436 1438 1441 1444 1446 1447 1449 1449 1448 1447 1451 1449 1449 1448 1447 1447 1446 1445 1445 1446 1446 1445 1443 1443 1442 1440 1438 1438 1437 1436 1434 1433 1432 1432 1431
1463 1463 1464 1463 1461 1460 1458 1457 1456 1455 1451 1449 1446 1445 1443 1442 1440 1438 1438 1439 1440 1443 1446 1448 1450 1450 1450 1449 1450 1450 1449 1448 1447 1446 1445 1445 1445 1445 1446 1445 1445 1445 1444 1442 1441 1440 1439 1438 1437 1437 1436 1434 1433 1432
1460 1458 1458 1459 1458 1458 1459 1458 1456 1453 1450 1448 1444 1443 1442 1441 1442 1444 1444 1444 1445 1447 1449 1450 1452 1452 1452 1452 1452 1451 1451 1450 1449 1449 1448 1447 1447 1447 1446 1446 1445 1445 1444 1444 1443 1441 1441 1440 1439 1437 1437 1435 1434 1433